Powrót do katalogu

ARIANE 44LP DEB

LostGTO
NORAD 33545·DEBRIS·🇫🇷 France

Wystrzelony Dec 11, 1988 z Guiana Space Centre

Loading…

TLE

NieaktualneSource: Space-Track

Epoka: Jul 24, 2025, 14:25 UTC

1 33545U 88109U   25205.60089755  .00000016  00000-0  64305-3 0  9998
2 33545   6.4979 200.1691 7127386 131.1428 316.5564  2.38228893196843

Śledź ARIANE 44LP DEB w czasie rzeczywistym z AllMySat

Download on the App Store